Dewpoint
66 65 65 65 65 64 63 62 62 61 61 60 58 59 60 59 59 58 59 59 59 59 61 62 61 61 54 53 52 49 49 49 49 50 52 54 61 61 58 58 56 59 55
65 66 64 64 64 63 62 61 61 61 60 60 60 61 58 58 59 57 57 55 56 58 60 60 60 54 59 62 53 59 54 57 52 56 55 53 58 61 60 62 55 52 54
64 63 62 64 63 62 61 60 61 60 60 58 59 59 57 57 57 57 59 56 58 58 59 60 60 60 59 56 57 53 50 50 53 50 52 52 52 54 55 57 57 58 53
63 63 63 62 61 60 60 59 58 58 57 57 57 58 57 56 58 58 59 59 60 60 60 60 60 60 61 59 56 57 53 53 52 50 49 50 50 55 53 52 52 52 53
63 61 62 62 62 61 60 57 56 56 55 55 56 57 56 56 53 58 58 60 61 60 60 61 59 58 58 59 52 55 56 52 49 50 49 49 50 52 53 53 53 52 53
62 61 62 61 61 59 58 57 57 57 58 59 59 58 58 55 57 59 57 54 57 58 60 60 60 60 60 60 59 59 57 53 53 52 51 53 56 55 54 55 54 53 52
61 61 60 60 59 59 58 57 57 59 59 59 59 59 58 58 59 58 59 58 57 57 59 58 57 52 55 55 56 55 57 58 57 57 56 56 57 56 57 56 56 55 54
58 58 59 59 59 59 59 59 59 58 58 58 59 58 58 56 59 58 60 60 59 60 61 62 61 61 60 58 55 49 50 51 52 49 55 55 57 58 59 57 57 56 55
56 57 57 58 57 57 57 57 58 59 61 60 60 63 62 60 57 58 60 60 57 60 60 62 60 59 58 51 53 50 52 49 49 55 56 55 55 56 56 55 53 55 52
54 56 57 58 58 57 58 59 62 62 60 54 57 59 57 60 57 56 59 56 56 50 56 57 58 59 58 52 53 50 50 49 50 48 51 55 57 56 57 58 55 51 53
56 56 57 58 59 59 59 60 59 60 61 60 60 61 61 61 62 55 55 59 53 48 45 46 48 55 55 51 50 51 51 53 51 48 50 46 49 50 46 51 57 53 51
57 57 58 59 56 55 62 61 61 61 62 62 62 60 55 63 58 56 55 54 58 56 55 50 53 53 54 52 50 49 50 50 45 44 45 44 45 45 47 51 58 57 53
58 58 58 59 57 59 61 60 55 60 55 56 50 47 46 48 53 53 52 53 55 56 56 54 53 52 50 50 50 50 51 46 46 45 44 45 46 47 57 55 58 60 61
58 58 58 57 57 58 53 52 52 52 53 48 47 47 47 55 48 53 55 53 55 55 56 55 55 54 53 53 53 53 51 49 48 47 46 47 48 47 46 47 46 46 46
55 53 53 49 50 53 56 50 48 56 48 48 48 46 46 45 46 48 47 48 47 49 52 52 50 51 52 53 54 55 53 52 49 49 49 49 47 47 48 47 47 47 46
52 47 46 45 44 43 45 48 50 48 47 45 45 46 47 46 45 44 44 44 45 46 51 50 50 51 51 51 52 52 53 53 51 50 50 50 48 47 48 47 47 48 46
54 51 48 48 47 46 46 46 45 47 47 45 44 44 44 46 45 44 43 44 44 45 50 51 51 52 51 51 52 51 51 52 57 52 50 50 51 50 49 49 50 50 46
55 51 51 48 48 47 47 47 46 46 45 46 45 45 44 43 43 43 43 45 50 48 51 50 52 52 52 52 52 52 54 54 53 53 52 51 52 48 49 49 49 50 50
52 50 49 48 48 48 48 48 48 48 48 48 51 49 47 43 43 42 43 49 52 50 49 51 52 54 58 58 58 57 57 55 55 58 55 56 54 52 51 50 48 46 47
50 52 50 48 47 48 48 47 48 51 52 52 52 52 52 51 54 58 58 57 54 53 54 55 55 58 56 58 57 58 56 57 54 55 54 55 54 56 54 53 52 50 48
47 45 50 45 46 46 49 48 48 51 51 51 51 49 47 56 57 57 57 57 57 57 57 55 53 55 58 57 57 56 53 52 52 53 53 53 54 53 52 50 49 50 49
45 44 43 43 47 49 48 48 49 49 48 49 54 54 49 60 60 58 56 57 57 58 59 58 54 53 53 56 56 53 53 54 54 53 50 50 50 52 52 52 50 47 45
45 44 44 44 44 45 47 46 47 50 49 50 49 51 52 50 51 52 54 55 57 56 59 54 54 52 57 57 55 53 49 48 48 46 45 46 47 46 46 46 45 45 44
47 47 46 45 45 46 46 46 45 46 48 49 50 50 49 50 50 52 54 56 57 57 56 55 56 53 52 49 49 45 41 39 39 37 39 39 40 42 45 46 45 45 46
45 46 47 48 48 49 48 49 47 49 50 50 50 49 51 52 54 54 56 53 54 55 54 55 55 51 50 49 42 41 38 32 39 36 38 38 37 39 39 43 46 45 45
46 47 47 50 51 52 50 50 50 49 49 49 50 51 51 50 47 45 49 47 48 46 46 45 47 47 45 40 40 37 34 32 35 33 36 35 34 37 39 39 39 38 38
Lifted_Index
-2 -1 -0 1 2 2 2 2 3 3 3 3 3 3 3 3 4 4 5 6 6 5 5 6 6 5 5 6 7 8 9 9 8 8 8 8 7 7 7 8 9 9 9
-2 -1 -0 0 1 1 2 2 2 3 3 4 4 4 5 5 5 5 5 5 5 5 5 6 6 6 6 6 7 8 8 8 8 8 8 8 8 7 7 8 8 9 9
-1 -1 -0 -0 -0 0 1 1 2 3 4 5 5 6 6 6 6 6 5 5 5 5 5 5 5 6 6 6 7 8 8 8 8 8 8 8 8 8 8 8 8 9 9
-2 -1 -1 -1 -1 -0 1 2 4 5 6 6 6 6 7 6 6 6 5 5 4 4 4 4 4 5 5 6 7 8 8 8 9 9 8 8 8 8 9 9 9 9 9
-2 -2 -1 -1 -0 1 2 3 5 6 6 6 6 6 6 6 6 5 5 4 4 3 3 3 3 4 5 5 6 7 7 8 8 8 7 7 7 7 8 9 9 9 9
-2 -1 -1 -0 1 2 3 4 4 5 5 5 5 5 5 5 5 5 5 5 4 3 3 2 3 4 4 5 6 7 7 7 7 7 6 6 6 6 6 7 8 8 9
-1 -1 -0 0 1 1 2 3 3 3 3 3 3 3 3 4 4 4 5 4 4 3 2 2 2 3 4 4 5 6 6 6 5 5 5 4 4 4 5 6 7 7 8
-0 -0 -0 0 1 1 2 2 2 2 2 2 2 2 3 3 3 4 3 3 2 2 1 1 1 1 1 2 3 4 4 4 4 4 4 4 4 4 4 5 6 7 7
0 0 0 0 1 1 1 1 1 1 1 2 2 2 2 2 2 2 2 2 1 1 1 -0 -0 -1 -1 -0 1 2 2 2 3 3 4 4 4 4 4 4 5 5 6
1 1 0 0 1 1 1 1 1 1 1 1 1 1 0 0 0 1 1 1 1 1 1 1 -0 -1 -1 -0 0 1 2 2 3 3 3 3 2 3 3 3 4 4 4
1 1 1 1 1 1 1 1 1 0 -0 -0 -0 -1 -1 -1 -1 -0 0 0 1 1 2 1 1 -0 -0 -0 0 1 2 3 3 3 3 2 2 2 3 3 3 3 3
1 1 1 1 1 1 1 1 1 0 -0 -1 -1 -0 -0 -1 -1 0 0 1 1 1 1 1 1 1 1 1 1 1 2 3 4 3 2 2 2 2 2 2 2 2 3
0 1 1 1 1 1 0 0 0 0 0 0 0 1 1 1 0 1 1 1 1 1 0 0 0 1 1 1 1 1 2 3 3 3 2 2 2 2 2 2 2 2 2
1 1 1 1 1 1 1 1 1 1 1 1 2 2 2 2 1 1 1 1 2 1 1 0 0 0 0 -0 -0 -0 0 1 2 2 2 2 2 2 2 2 3 3 3
1 1 2 2 2 1 1 2 2 2 2 2 2 2 2 2 2 2 2 2 2 2 2 1 1 0 -0 -1 -1 -1 -1 0 1 1 1 1 1 2 2 2 3 3 3
2 2 2 2 2 2 2 2 2 2 2 2 2 2 2 2 2 2 2 2 2 2 2 1 1 -0 -1 -1 -1 -1 -1 -0 -0 0 0 0 1 1 2 2 2 3 3
2 2 2 2 2 2 2 2 2 2 2 2 2 2 2 1 1 1 1 1 1 2 2 1 0 -0 -1 -1 -1 -1 -1 -1 -1 -0 -0 0 1 1 1 2 2 2 3
1 1 1 1 1 2 1 1 1 1 1 1 1 1 1 1 0 0 1 1 1 1 1 1 0 -1 -1 -1 -1 -1 -2 -1 -0 0 0 0 0 1 1 1 2 2 2
1 1 1 1 1 1 1 1 1 1 0 0 -0 -0 -0 -0 -0 0 0 0 0 0 0 -0 -1 -1 -1 -0 -0 -1 -1 -0 1 1 1 -0 0 1 1 1 1 2 2
1 1 1 1 1 1 1 0 0 -0 -0 -1 -1 -1 -1 -1 -1 -0 1 1 0 0 -0 -0 -0 -0 0 1 0 0 1 1 2 3 2 1 1 1 1 2 2 2 2
1 1 1 1 1 1 0 0 -0 -0 -1 -1 -1 -1 -1 -1 -1 0 1 1 1 1 1 1 0 1 1 1 1 1 1 2 3 3 3 3 3 3 2 2 2 3 3
1 1 1 1 1 0 -0 -0 -0 -0 -0 -1 -1 -1 -0 -0 -0 0 1 1 2 2 1 1 1 1 2 2 2 2 2 3 3 4 4 4 4 4 4 3 3 4 4
1 1 0 0 0 -0 -0 -0 -0 -0 -0 -1 -1 -1 -1 -0 -0 0 1 1 1 1 1 1 1 1 2 2 2 3 4 5 5 5 6 6 5 5 5 4 4 5 5
-0 -0 -0 -1 -1 -1 -0 -0 -1 -1 -1 -1 -1 -1 -0 0 0 1 1 1 0 0 0 1 1 1 2 3 3 5 6 7 8 8 8 7 7 6 5 5 5 5 5
-1 -1 -1 -1 -1 -1 -1 -1 -1 -1 -1 -0 -0 0 1 1 1 1 1 1 1 1 1 2 2 2 3 4 5 6 8 9 9 9 9 8 8 6 5 5 5 5 5
-1 -1 -1 -2 -2 -1 -1 -1 -1 -0 -0 0 1 1 1 2 2 2 2 2 2 2 2 3 3 3 4 5 6 7 9 9 9 9 9 9 8 6 5 5 5 5 5